Satellite: FALCON
Catalog number: 30776
Epoch time:      09238.76504926
Element set:    0651
Inclination:      035.4342 deg
RA of node:       031.1876 deg
Eccentricity:    0.0000540
Arg of perigee:   269.9893 deg
Mean anomaly:     090.0761 deg
Mean motion:   15.03289930 rev/day
Decay rate:       1.78e-06 rev/day^2
Epoch rev:           13572
Checksum:              304

Satellite: MAST
Catalog number: 31126
Epoch time:      09238.66455084
Element set:    0672
Inclination:      097.9812 deg
RA of node:       290.2205 deg
Eccentricity:    0.0095842
Arg of perigee:   061.2880 deg
Mean anomaly:     299.7925 deg
Mean motion:   14.53513417 rev/day
Decay rate:        4.9e-07 rev/day^2
Epoch rev:           12527
Checksum:              314

Satellite: CAPE1
Catalog number: 31130
Epoch time:      09238.63512453
Element set:    0681
Inclination:      097.9821 deg
RA of node:       288.2195 deg
Eccentricity:    0.0103893
Arg of perigee:   067.4997 deg
Mean anomaly:     293.7126 deg
Mean motion:   14.52082152 rev/day
Decay rate:        8.2e-07 rev/day^2
Epoch rev:           12491
Checksum:              309

Satellite: COMPASS
Catalog number: 32787
Epoch time:      09239.89092465
Element set:     447
Inclination:      097.9368 deg
RA of node:       303.0893 deg
Eccentricity:    0.0016243
Arg of perigee:   155.9540 deg
Mean anomaly:     204.2432 deg
Mean motion:   14.81646482 rev/day
Decay rate:       3.54e-06 rev/day^2
Epoch rev:            7206
Checksum:              318

Satellite: AAUSAT2
Catalog number: 32788
Epoch time:      09239.85282097
Element set:     443
Inclination:      097.9361 deg
RA of node:       303.1219 deg
Eccentricity:    0.0015905
Arg of perigee:   156.7194 deg
Mean anomaly:     203.4710 deg
Mean motion:   14.81768401 rev/day
Decay rate:      -1.07e-06 rev/day^2
Epoch rev:            7206
Checksum:              302

Satellite: DO-64
Catalog number: 32789
Epoch time:      09238.72670333
Element set:    0460
Inclination:      097.9404 deg
RA of node:       302.2129 deg
Eccentricity:    0.0015889
Arg of perigee:   158.5093 deg
Mean anomaly:     201.6784 deg
Mean motion:   14.81773706 rev/day
Decay rate:       1.10e-06 rev/day^2
Epoch rev:           07189
Checksum:              325

Satellite: CO-66
Catalog number: 32791
Epoch time:      09239.19917808
Element set:     439
Inclination:      097.9386 deg
RA of node:       302.4365 deg
Eccentricity:    0.0016254
Arg of perigee:   155.7154 deg
Mean anomaly:     204.4823 deg
Mean motion:   14.81468695 rev/day
Decay rate:       -5.0e-08 rev/day^2
Epoch rev:            7192
Checksum:              339

Satellite: RS-30
Catalog number: 32953
Epoch time:      09238.85966450
Element set:    0390
Inclination:      082.4988 deg
RA of node:       212.6614 deg
Eccentricity:    0.0020160
Arg of perigee:   028.2675 deg
Mean anomaly:     331.9494 deg
Mean motion:   12.43002981 rev/day
Decay rate:        1.0e-07 rev/day^2
Epoch rev:           05717
Checksum:              297

Satellite: TACSAT-3
Catalog number: 35001
Epoch time:      09239.91685605
Element set:      82
Inclination:      040.4555 deg
RA of node:       171.6336 deg
Eccentricity:    0.0025485
Arg of perigee:   333.6354 deg
Mean anomaly:     026.3166 deg
Mean motion:   15.39074882 rev/day
Decay rate:      1.392e-05 rev/day^2
Epoch rev:            1540
Checksum:              291

Satellite: PHARMSAT
Catalog number: 35002
Epoch time:      09239.86702819
Element set:      80
Inclination:      040.4688 deg
RA of node:       171.3438 deg
Eccentricity:    0.0028497
Arg of perigee:   337.7160 deg
Mean anomaly:     022.2415 deg
Mean motion:   15.39831737 rev/day
Decay rate:      1.234e-05 rev/day^2
Epoch rev:            1539
Checksum:              295

Satellite: HAWKSAT1
Catalog number: 35003
Epoch time:      09239.89915178
Element set:      85
Inclination:      040.4621 deg
RA of node:       170.6285 deg
Eccentricity:    0.0028760
Arg of perigee:   340.5292 deg
Mean anomaly:     019.4433 deg
Mean motion:   15.40481695 rev/day
Decay rate:      2.679e-05 rev/day^2
Epoch rev:            1541
Checksum:              300

Satellite: CP6
Catalog number: 35004
Epoch time:      09239.96357521
Element set:      79
Inclination:      040.4621 deg
RA of node:       170.2400 deg
Eccentricity:    0.0028297
Arg of perigee:   341.3468 deg
Mean anomaly:     018.6297 deg
Mean motion:   15.40521633 rev/day
Decay rate:      2.935e-05 rev/day^2
Epoch rev:            1541
Checksum:              284

Satellite: AEROCUB3
Catalog number: 35005
Epoch time:      09239.78091622
Element set:      79
Inclination:      040.4742 deg
RA of node:       171.6103 deg
Eccentricity:    0.0028333
Arg of perigee:   337.6032 deg
Mean anomaly:     022.3547 deg
Mean motion:   15.40324506 rev/day
Decay rate:      2.876e-05 rev/day^2
Epoch rev:            1538
Checksum:              274

Satellite: DRAGNSAT
Catalog number: 35690
Epoch time:      09238.64447228
Element set:      27
Inclination:      051.6455 deg
RA of node:       303.5995 deg
Eccentricity:    0.0003724
Arg of perigee:   164.5711 deg
Mean anomaly:     195.5388 deg
Mean motion:   15.81475644 rev/day
Decay rate:     1.5274e-04 rev/day^2
Epoch rev:             429
Checksum:              317

